Total_Precipitation_Accumulation
0.00 0.01 0.01 0.01 0.01 0.01 0.01 0.02 0.03 0.04 0.04 0.05 0.10 0.18 0.27 0.33 0.40 0.53 0.68 0.75 0.80 0.95 1.38 1.79 1.98 2.10 2.40 2.61 2.78 2.76 2.88 3.13 3.35 3.70 3.67 3.84 4.24 4.59 4.74 4.91 4.92 4.80 4.66 4.60
0.01 0.01 0.01 0.01 0.01 0.01 0.01 0.01 0.02 0.04 0.06 0.08 0.15 0.25 0.31 0.35 0.41 0.53 0.73 0.81 0.76 0.95 1.28 1.74 1.97 2.30 2.53 2.66 2.89 3.01 3.10 3.45 3.92 4.45 4.96 5.34 5.68 5.67 5.79 5.77 5.65 5.34 5.12 4.96
0.01 0.01 0.01 0.01 0.01 0.01 0.01 0.01 0.02 0.04 0.08 0.11 0.18 0.35 0.42 0.48 0.55 0.61 0.74 0.80 0.88 1.07 1.37 1.61 1.87 2.17 2.44 2.67 2.92 3.10 3.39 3.95 4.77 5.26 5.71 6.24 6.54 6.30 6.06 5.78 5.69 5.60 5.49 5.35
0.01 0.01 0.01 0.01 0.01 0.01 0.02 0.02 0.03 0.04 0.07 0.14 0.18 0.41 0.63 0.70 0.79 0.75 0.86 1.00 1.15 1.26 1.41 1.61 1.84 2.09 2.41 2.75 2.88 3.07 3.62 4.30 4.96 5.48 6.07 6.63 6.89 6.96 6.79 6.25 5.76 5.34 5.04 4.78
0.01 0.01 0.01 0.02 0.01 0.01 0.02 0.01 0.02 0.05 0.07 0.12 0.16 0.36 0.78 1.00 1.08 1.07 1.14 1.19 1.22 1.26 1.38 1.53 1.72 1.91 2.07 2.40 2.85 3.19 3.76 4.40 5.04 5.74 6.45 6.87 7.12 7.14 6.77 5.99 5.21 4.68 4.36 4.06
0.01 0.01 0.01 0.02 0.01 0.01 0.01 0.01 0.03 0.05 0.08 0.16 0.16 0.34 0.90 1.27 1.47 1.46 1.37 1.36 1.35 1.28 1.27 1.31 1.51 1.66 1.94 2.26 2.64 3.12 3.44 4.04 4.70 5.28 5.82 6.01 6.19 6.15 5.75 5.32 4.84 4.40 3.86 3.37
0.01 0.02 0.02 0.01 0.01 0.01 0.01 0.03 0.12 0.22 0.26 0.27 0.21 0.45 1.00 1.32 1.32 1.31 1.32 1.41 1.37 1.20 1.21 1.41 1.67 1.63 1.88 2.18 2.56 2.98 3.36 3.74 4.24 4.73 5.20 5.45 5.61 5.50 5.02 4.55 4.13 3.68 3.17 2.75
0.08 0.05 0.04 0.02 0.03 0.03 0.03 0.05 0.21 0.36 0.41 0.43 0.42 0.76 1.18 1.21 1.12 1.08 1.07 1.13 1.25 1.26 1.26 1.35 1.49 1.57 1.80 2.03 2.30 2.68 3.02 3.38 3.61 3.82 4.16 4.41 4.55 4.44 4.10 3.59 3.12 2.81 2.53 2.25
0.15 0.13 0.06 0.03 0.03 0.03 0.04 0.07 0.14 0.17 0.23 0.44 0.79 1.08 1.43 1.39 1.27 1.18 1.06 1.07 1.17 1.15 1.14 1.22 1.33 1.46 1.65 1.93 2.29 2.57 2.70 2.90 3.08 3.26 3.31 3.33 3.43 3.32 3.06 2.75 2.44 2.15 1.90 1.68
0.14 0.19 0.09 0.04 0.03 0.05 0.06 0.07 0.10 0.18 0.41 0.62 0.92 1.38 1.72 1.84 1.73 1.60 1.30 1.20 1.15 1.18 1.17 1.18 1.25 1.37 1.47 1.55 1.88 2.20 2.26 2.37 2.45 2.50 2.53 2.51 2.54 2.41 2.31 2.14 1.94 1.69 1.54 1.37
0.16 0.21 0.14 0.07 0.08 0.09 0.08 0.10 0.13 0.20 0.30 0.59 0.99 1.57 1.79 2.07 2.15 1.98 1.66 1.49 1.44 1.40 1.31 1.26 1.27 1.27 1.36 1.44 1.57 1.83 2.02 2.04 2.09 2.17 2.09 1.96 1.99 1.97 1.93 1.83 1.72 1.60 1.53 1.41
0.17 0.23 0.22 0.14 0.12 0.10 0.10 0.13 0.20 0.36 0.38 0.43 0.87 1.75 2.07 2.20 2.16 1.90 1.71 1.57 1.51 1.42 1.28 1.22 1.17 1.11 1.16 1.30 1.40 1.51 1.72 1.78 1.79 1.81 1.81 1.82 1.81 1.78 1.72 1.57 1.44 1.32 1.19 1.08
0.14 0.29 0.52 0.53 0.41 0.21 0.14 0.15 0.20 0.27 0.37 0.51 0.94 1.96 2.45 2.38 2.22 1.93 1.76 1.71 1.68 1.58 1.40 1.30 1.19 1.10 1.13 1.23 1.28 1.33 1.47 1.66 1.68 1.59 1.55 1.64 1.62 1.54 1.45 1.35 1.29 1.19 1.05 0.99
0.11 0.28 0.64 1.09 0.83 0.46 0.27 0.19 0.24 0.36 0.56 0.68 0.94 1.42 1.74 1.87 1.95 1.97 2.06 2.09 1.90 1.68 1.48 1.30 1.23 1.17 1.18 1.24 1.24 1.28 1.36 1.48 1.55 1.53 1.52 1.50 1.45 1.38 1.34 1.21 1.03 0.96 0.89 0.91
0.17 0.34 0.36 0.42 0.41 0.41 0.40 0.34 0.31 0.40 0.50 0.77 1.07 1.40 1.69 1.77 1.80 1.87 2.00 1.93 1.70 1.53 1.38 1.24 1.22 1.29 1.26 1.22 1.20 1.19 1.26 1.29 1.45 1.50 1.44 1.37 1.33 1.30 1.26 1.18 1.05 0.94 0.84 0.78
0.20 0.34 0.36 0.42 0.36 0.44 0.42 0.42 0.43 0.51 0.61 0.82 1.15 1.56 1.77 1.76 1.74 1.82 1.93 1.87 1.69 1.42 1.27 1.20 1.20 1.27 1.23 1.18 1.13 1.07 1.13 1.17 1.27 1.37 1.32 1.24 1.19 1.25 1.20 1.16 1.08 0.98 0.84 0.76
0.28 0.44 0.59 0.61 0.40 0.59 0.87 0.66 0.67 0.75 0.78 0.96 1.34 1.54 1.59 1.67 1.68 1.75 1.86 1.93 1.79 1.55 1.44 1.46 1.49 1.46 1.35 1.22 1.13 1.11 1.16 1.20 1.24 1.30 1.23 1.22 1.19 1.16 1.13 1.01 0.94 0.92 0.84 0.72
0.28 0.47 0.61 0.61 0.74 1.19 1.09 0.61 0.68 0.81 0.84 0.88 1.00 1.14 1.30 1.41 1.47 1.63 1.81 1.95 1.90 1.78 1.74 1.76 1.70 1.55 1.41 1.29 1.24 1.19 1.15 1.20 1.27 1.24 1.17 1.10 1.10 1.06 1.02 0.98 0.89 0.81 0.78 0.72
0.17 0.40 0.65 0.83 1.12 1.31 1.07 0.64 0.61 0.91 1.08 0.85 0.85 0.88 0.91 0.95 1.12 1.49 1.65 1.74 1.76 1.77 1.72 1.63 1.54 1.44 1.36 1.26 1.20 1.13 1.10 1.07 1.09 1.06 1.02 0.94 0.94 1.00 1.02 0.97 0.91 0.82 0.77 0.73
0.16 0.30 0.69 0.93 1.27 1.54 1.29 0.61 0.43 0.76 1.42 0.98 0.85 0.89 0.93 1.04 1.27 1.36 1.30 1.30 1.34 1.37 1.40 1.40 1.36 1.28 1.21 1.13 1.04 0.97 0.98 0.98 0.96 0.94 0.94 0.83 0.82 0.89 0.95 0.92 0.85 0.74 0.69 0.68
0.49 0.55 0.74 0.93 1.20 1.35 0.77 0.46 0.60 1.28 1.62 1.08 0.92 0.94 1.06 1.19 1.17 0.96 0.89 0.96 1.04 1.15 1.20 1.21 1.25 1.25 1.12 0.94 0.88 0.90 0.89 0.88 0.78 0.76 0.83 0.83 0.81 0.81 0.80 0.80 0.81 0.73 0.65 0.63
0.64 0.80 0.88 1.00 1.32 1.43 0.62 0.50 0.92 1.11 0.86 0.83 0.87 0.90 0.90 0.85 0.72 0.70 0.73 0.75 0.79 0.94 1.06 1.05 1.09 1.05 0.93 0.84 0.86 0.90 0.85 0.76 0.71 0.77 0.85 0.84 0.80 0.71 0.70 0.80 0.85 0.76 0.66 0.62
0.52 0.66 0.87 1.06 1.23 0.94 0.51 0.52 0.60 0.59 0.66 0.67 0.68 0.64 0.59 0.58 0.55 0.55 0.64 0.69 0.73 0.81 0.90 0.90 0.89 0.88 0.88 0.86 0.89 0.90 0.83 0.72 0.74 0.80 0.84 0.83 0.76 0.72 0.72 0.77 0.80 0.75 0.68 0.59
0.46 0.34 0.46 0.68 0.71 0.51 0.43 0.39 0.38 0.42 0.52 0.54 0.57 0.61 0.53 0.54 0.55 0.55 0.58 0.66 0.74 0.79 0.79 0.78 0.77 0.77 0.80 0.77 0.76 0.75 0.67 0.65 0.75 0.82 0.80 0.78 0.79 0.78 0.73 0.68 0.64 0.62 0.58 0.52
0.43 0.41 0.53 0.63 0.52 0.44 0.43 0.36 0.31 0.33 0.37 0.42 0.50 0.59 0.59 0.57 0.63 0.61 0.61 0.67 0.71 0.74 0.74 0.75 0.76 0.75 0.72 0.69 0.64 0.62 0.63 0.68 0.77 0.77 0.71 0.71 0.75 0.73 0.68 0.57 0.49 0.45 0.39 0.31
0.34 0.44 0.60 0.64 0.49 0.51 0.46 0.33 0.30 0.37 0.40 0.41 0.47 0.57 0.55 0.54 0.62 0.67 0.67 0.64 0.62 0.65 0.66 0.69 0.67 0.66 0.66 0.61 0.58 0.59 0.61 0.61 0.68 0.68 0.62 0.60 0.63 0.62 0.54 0.47 0.41 0.34 0.25 0.22